#timestamp,LO_Frequency,Hit,StdDev 
1579892415.7,286046997.4,N
1579892435.5,286046994.9,N
1579892455.4,286046995.0,N
1579892475.2,286046997.7,N
1579892495.1,286046999.3,N
1579892496.0,286046999.3,N
1579892515.8,286046999.2,N
1579892535.6,286046995.3,N
1579892555.5,286046998.0,N
1579892575.3,286046995.0,N
1579892595.1,286046996.1,N
1579892615.9,286046994.6,N
1579892635.7,286046991.9,Y
1579892655.6,286046993.4,P
1579892675.4,286046994.3,N
1579892695.2,286046992.0,P
1579892715.1,286046992.5,Y
1579892716.0,286046992.5,P
1579892735.8,286046996.6,P
1579892755.7,286046997.5,N
1579892775.5,286046997.5,N
1579892795.3,286046997.5,N
1579892815.2,286046995.2,N
1579892835.0,286046997.2,N
1579892835.9,286046997.2,N
1579892855.8,286046996.8,N
1579892875.6,286046999.6,N
1579892895.4,286046996.9,N
1579892915.3,286046997.4,N
1579892935.1,286046995.8,N
1579892955.8,286046993.9,Y
1579892975.7,286046996.5,P
1579892995.5,286046995.3,P
1579893015.4,286046995.6,P
1579893035.2,286046995.2,Y
1579893055.0,286047000.4,P
1579893055.9,286047000.4,N
1579893075.8,286046998.1,N
1579893095.6,286047000.8,N
1579893115.4,286046999.0,N
1579893135.3,286046998.3,N
1579893155.1,286046999.0,N
1579893175.9,286046998.3,N
1579893195.7,286046995.0,Y
1579893215.5,286046997.3,P
1579893235.4,286046997.8,N
1579893255.2,286046997.2,P
1579893275.1,286046997.8,Y
1579893276.0,286046997.8,P
1579893295.8,286047001.2,P
1579893315.6,286046998.9,N
1579893335.5,286047001.2,N
1579893355.3,286046998.2,N
1579893375.2,286046999.0,N
1579893395.9,286046997.3,N
1579893415.7,286046998.6,N
1579893435.6,286047000.9,N
1579893455.4,286047002.6,N
1579893475.2,286047002.6,N
1579893495.1,286047002.2,N
1579893496.0,286047002.2,N
1579893515.8,286047000.4,N
1579893535.7,286047001.1,N
1579893555.5,286046999.0,N
1579893575.3,286046998.4,N
1579893595.2,286046999.4,N
1579893615.0,286046999.0,N
1579893615.9,286046999.0,N
1579893635.8,286046998.5,N
1579893655.6,286046998.4,N
1579893675.4,286047001.1,N
1579893695.3,286046998.1,N
1579893715.1,286046998.3,N
1579893735.8,286046999.6,N
1579893755.7,286046996.7,N
1579893775.5,286046999.2,N
1579893795.4,286046999.2,N
1579893815.2,286046997.4,N
1579893835.0,286046996.9,N
1579893835.9,286046996.9,N
1579893855.8,286046998.6,N
1579893875.6,286046998.9,N
1579893895.4,286046999.2,N
1579893915.3,286046997.6,N
1579893935.1,286046995.5,N
1579893955.9,286046997.5,N
1579893975.7,286046998.7,N
1579893995.5,286047000.9,N
1579894015.4,286047000.9,N
1579894035.2,286046998.4,N
1579894055.0,286046998.4,N
1579894055.9,286046998.4,N
1579894075.8,286046998.7,N
1579894095.6,286047000.9,N
1579894115.5,286046996.9,N
1579894135.3,286046995.5,Y
1579894155.1,286046995.6,P
1579894175.9,286046995.7,N
1579894195.7,286046995.5,P
1579894215.5,286046997.7,N
1579894235.4,286046998.0,N
1579894255.2,286046999.2,N
1579894275.1,286046999.6,N
1579894276.0,286046999.6,N
1579894295.8,286046999.5,N
1579894315.6,286046999.6,N
1579894335.5,286046996.5,N
1579894355.3,286046998.3,N
1579894375.2,286046999.3,N
1579894395.9,286046998.7,N
1579894415.7,286046998.6,N
1579894435.6,286046998.1,N
1579894455.4,286047000.9,N
1579894475.3,286047002.8,N
1579894495.1,286047000.6,N
1579894496.0,286047000.6,N
1579894515.8,286047000.1,N
1579894535.7,286047000.8,N
1579894555.5,286047002.2,N
1579894575.3,286047001.5,N
1579894595.2,286047002.2,N
1579894615.0,286047002.9,N
1579894615.9,286047002.9,N
1579894635.8,286047003.4,N
1579894655.6,286047003.5,N
1579894675.4,286047002.4,N
1579894695.3,286047002.0,N
1579894715.1,286047001.8,N
1579894735.8,286047001.7,N
1579894755.7,286047001.5,N
1579894775.5,286046999.8,N
1579894795.4,286047000.6,N
1579894815.2,286047000.3,N
1579894835.0,286047003.8,N
1579894835.9,286047003.8,N
1579894855.8,286047005.8,Y
1579894875.6,286047001.7,P
1579894895.5,286047003.3,P
1579894915.3,286047004.9,P
1579894935.1,286047006.0,Y
1579894955.9,286047002.7,P
1579894975.7,286047004.4,P
1579894995.6,286047006.0,P
1579895015.4,286047003.6,N
1579895035.2,286047005.6,Y
1579895055.1,286047001.2,P
1579895056.0,286047001.2,N
1579895075.8,286047000.2,N
1579895095.7,286047001.0,N
1579895115.5,286046997.3,N
1579895135.3,286046999.6,N
1579895155.2,286046999.0,N
1579895175.9,286046998.8,N
1579895195.7,286046999.4,N
1579895215.6,286047001.0,N
1579895235.4,286046999.4,N
1579895255.3,286046996.7,N
1579895275.1,286046998.7,N
1579895276.0,286046998.7,N
1579895295.8,286046998.1,N
1579895315.7,286047000.4,N
1579895335.5,286046998.1,N
1579895355.4,286046998.6,N
1579895375.2,286046998.2,N
1579895395.0,286046998.5,N
1579895395.9,286046998.5,N
1579895415.8,286046998.1,N
1579895435.6,286047000.5,N
1579895455.5,286047001.8,N
1579895475.3,286047004.2,N
1579895495.1,286047001.8,N
1579895515.9,286047001.0,N
1579895535.7,286047000.9,N
1579895555.5,286047000.1,N
1579895575.4,286047002.0,N
1579895595.2,286047001.5,N
1579895615.1,286047001.3,N
1579895616.0,286047001.3,N
1579895635.8,286047003.8,N
1579895655.6,286047003.3,N
1579895675.5,286047001.9,N
1579895695.3,286047000.1,N
1579895715.2,286047000.2,N
1579895735.9,286047002.1,N
1579895755.7,286047002.0,N
1579895775.6,286047001.8,N
1579895795.4,286046999.9,N
1579895815.2,286047001.0,N
1579895835.1,286047000.3,N
1579895836.0,286047000.3,N
1579895855.8,286047002.2,N
1579895875.7,286046999.7,N
1579895895.5,286047001.6,N
1579895915.3,286047005.5,Y
1579895935.2,286046999.8,P
1579895955.0,286046999.9,N
1579895955.9,286046999.9,N
1579895975.8,286047002.7,Y
1579895995.6,286047003.0,P
